Regional Weather Roundup
Issued by NWS Wilmington, NC

Home | Current Version | Previous Version | Text Only | Print | Product List | Glossary On
Versions: 1 2 3 4 5 6 7 8 9 10 11 12 13 14 15 16 17 18 19 20 21 22 23 24 25 26 27
000
ASUS42 KILM 281213
RWRILM
RWRILM
REGIONAL HOURLY WEATHER ROUNDUP
NATIONAL WEATHER SERVICE WILMINGTON NC
800 AM EDT WED SEP 28 2016

NOTE: "FAIR" INDICATES FEW OR NO CLOUDS BELOW 12,000 FEET WITH NO
SIGNIFICANT WEATHER AND/OR OBSTRUCTIONS TO VISIBILITY.

...............WFO WILMINGTON COUNTY WARNING AREA...............

......COASTAL NC AND SC COUNTIES......

CITY           SKY/WX    TMP DP  RH WIND       PRES   REMARKS
WILMINGTON     MOSUNNY   71  69  93 CALM      29.95S
N MYRTLE BEACH SUNNY     72  71  97 CALM      29.94R
MYRTLE BEACH   PTCLDY    73  63  68 SW6       29.96R

......INLAND NC AND SC COUNTIES.......

CITY           SKY/WX    TMP DP  RH WIND       PRES   REMARKS
LUMBERTON      PTCLDY    69  68  96 CALM      29.93R FOG
ELIZABETHTOWN  CLEAR     68  68 100 CALM      29.95R FOG
WHITEVILLE     CLEAR     69  68  95 CALM      29.94R
FLORENCE       PTCLDY    70  68  93 CALM      29.93R
DARLINGTON     PTCLDY    72  71  97 S6        29.92S
KINGSTREE      FAIR      70  68  94 CALM      29.93S
HARTSVILLE     CLOUDY    70  68  94 S3        29.92S
BENNETTSVILLE  FAIR      72  72 100 CALM      29.92R
CONWAY         FAIR      68  68 100 CALM      29.94S FOG
GEORGETOWN     FAIR      68  66  94 CALM      29.95S
MARION         FAIR      68  68 100 CALM      29.95R FOG

....................REST OF NORTH CAROLINA......................

.........EASTERN NC.........

CITY           SKY/WX    TMP DP  RH WIND       PRES   REMARKS
CAPE HATTERAS  SUNNY     75  72  90 CALM      29.94R
JACKSONVILLE   SUNNY     69  68  96 CALM      29.95S
MOREHEAD CITY  SUNNY     72  71  97 CALM      29.94F
KENANSVILLE    SUNNY     66  66 100 CALM      29.94R FOG
NEW BERN       SUNNY     70  68  93 CALM      29.97R
ELIZABETH CITY MOSUNNY   69  69 100 CALM      29.95R

.........CENTRAL NC.........

CITY           SKY/WX    TMP DP  RH WIND       PRES   REMARKS
RALEIGH DURHAM MOCLDY    70  68  93 CALM      29.94S
ROCKY MOUNT    PTSUNNY   70  70 100 CALM      29.94R
ROANOKE RAPIDS NOT AVBL
FAYETTEVILLE   PTCLDY    70  68  93 S3        29.93R
HOFFMAN        CLOUDY    67  67  97 NE3       29.93R FOG

.........WESTERN NC.........

CITY           SKY/WX    TMP DP  RH WIND       PRES   REMARKS
CHARLOTTE      MOCLDY    68  65  90 S7        29.94R
GREENSBORO     MOCLDY    67  67 100 CALM      29.93S FOG
HICKORY        NOT AVBL
BOONE          NOT AVBL
ASHEVILLE      NOT AVBL

.....................REST OF SOUTH CAROLINA.....................

.........EASTERN SC.........

CITY           SKY/WX    TMP DP  RH WIND       PRES   REMARKS
CHARLESTON     PTCLDY    73  70  90 S5        29.94R
BEAUFORT MCAS  PTCLDY    74  72  93 S5        29.94S
HILTON HEAD    CLEAR     75  72  88 S6        29.97R

.........CENTRAL SC.........

CITY           SKY/WX    TMP DP  RH WIND       PRES   REMARKS
COLUMBIA       MOCLDY    72  66  81 CALM      29.90S
ORANGEBURG     PTCLDY    70  70 100 S5        29.93S
SUMTER SHAW    PTCLDY    71  69  95 CALM      29.90R

.........WESTERN SC.........

CITY           SKY/WX    TMP DP  RH WIND       PRES   REMARKS
GREENVILLE     NOT AVBL
ROCK HILL      CLEAR     66  65  96 CALM      29.95R
ANDERSON       FOG       68  68 100 CALM      29.93S VSB 3/4
CLEMSON        NOT AVBL
GREENWOOD      CLEAR     68  65  90 MISG      29.95R


...................COASTAL AND OFFSHORE REPORTS..................

................LOCAL PIERS AND NC RESERVE................


STATION/POSITION TIME  SKY/WX   TEMP    WIND        PRES    VSBY
                                AIR SEA DIR/SP/G
                 (UTC)          (F)     (DEG/KT/KT) (MB)    (MI)
JOHNY MRCER PIER 1148            76 82   CALM  /  1 1013.1R
NC RESRV MASNBRO 1045            72     320/  1     1012.0
OCEAN CREST PIER NOT AVBL
SPRINGMAID  PIER 1148            75 81  210/  4/  5 1013.4R


................COASTAL AND OFFSHORE BUOYS................


STATION/POSITION TIME  SKY/WX   TEMP    WIND        PRES    VSBY
                                AIR SEA DIR/SP/G
                 (UTC)          (F)     (DEG/KT/KT) (MB)    (MI)
DIMNDSHOAL 41025 1150            77 84  340/ 12/ 14 1013.3R
WVE H/P(F/S)=  4/12 SWL H/P/D(F/S/D)=  3/ 80/12

CAPE LOOKOUT     1200            75      50/  1/  2 1013.6F
ONSLOW BAY 41036 NOT AVBL
ONSLOW BAY 41064 1108            79 83  320/  4/  6 1013.9R
ONSLOW BAY 41159 1155               83                N/A
WVE H/P(F/S)=  3/ 7 SWL H/P/D(F/S/D)=  2/100/12

5SE WRITBC 41038 1108            79 80  190/  2/  6 1014.9R
MASNBO INL 41110 1159               80                N/A
WVE H/P(F/S)=  3/ 7 SWL H/P/D(F/S/D)=  2/120/11

WILM HARBR 41108 1156               81                N/A
WVE H/P(F/S)=  2/ 7 SWL H/P/D(F/S/D)=  2/140/12

27SE WRITB 41037 1108            79 81  240/  2/  6 1014.1R
FRYING PAN 41013 1150            80 82  280/  2/  4 1013.9R
WVE H/P(F/S)=  3/12 SWL H/P/D(F/S/D)=  3/110/12

SUNST NRSH 41024 1108            76 81  320/  6/  8 1013.4R
CAPRS NRSH 41029 1108            79 81  220/  8/ 10 1013.5R
EDISTO     41004 1150            80 82  220/  4/  6 1013.4R
WVE H/P(F/S)=  3/11 SWL H/P/D(F/S/D)=  3/120/11



..........OFFSHORE BUOYS BEYOND 100 NM OFFSHORE...........
.....IN A TRIANGLE---HAT TO BERMUDA TO BAHAMAS TO HAT.....


STATION/POSITION TIME  SKY/WX   TEMP    WIND        PRES    VSBY
                                AIR SEA DIR/SP/G
                 (UTC)          (F)     (DEG/KT/KT) (MB)    (MI)
150E HAT   41001 NOT AVBL
W BERMUDA  41048 1150            78 83  200/ 12/ 14 1016.3R
WVE H/P(F/S)=  6/ 6 SWL H/P/D(F/S/D)=  5/170/ 6

ATLANTIC S 41049 1150            83 83  120/  8/ 10 1021.8R
WVE H/P(F/S)=  5/10 SWL H/P/D(F/S/D)=  5/ 30/10

E BAHAMAS  41046 1150            86 86  140/  8/ 10 1018.6R
WVE H/P(F/S)=  4/10 SWL H/P/D(F/S/D)=  3/ 80/10

NE BAHAMAS 41047 1150            83 86  190/  8/ 12 1017.6R
WVE H/P(F/S)=  4/ 9 SWL H/P/D(F/S/D)=  3/ 90/ 9

120E CANVRL41010 NOT AVBL

END




USA.gov is the U.S. government's official web portal to all federal, state and local government web resources and services.